Regional Weather Roundup
Issued by NWS

Home | Current Version | Previous Version | Text Only | Print | Product List | Glossary Off
Versions: 1 2 3 4 5 6 7 8 9 10 11 12 13 14 15 16 17 18 19 20 21 22 23 24 25 26 27 28 29 30 31 32 33 34 35 36 37 38 39 40 41 42 43 44 45 46 47 48 49 50

251
ASUS43 KIND 130509
RWRIN

WEATHER ROUNDUP FOR INDIANA
NATIONAL WEATHER SERVICE INDIANAPOLIS IN
1200 AM EST WED DEC 13 2017

NOTE: "FAIR" INDICATES FEW OR NO CLOUDS BELOW 12,000 FEET WITH NO
SIGNIFICANT WEATHER AND/OR OBSTRUCTIONS TO VISIBILITY.

* - STATION DOES NOT REPORT WEATHER SUCH AS PRECIPITATION OR FOG.

+ - STATION NOT QUALITY CONTROLLED BY THE NATIONAL WEATHER SERVICE.
    USE DATA WITH CAUTION...ESPECIALLY DEWPOINT AND RELATIVE
    HUMIDITY OBSERVATIONS.

INZ001>003-010>013-019-020-130600-
NORTHWEST INDIANA

CITY           SKY/WX    TMP DP  RH WIND       PRES   REMARKS
GARY /AIRPORT/ CLOUDY    22   8  54 CALM      29.97F
KNOX *+        CLOUDY    19  10  68 W9        29.97F WCI   9
LA PORTE +     MOCLDY    17  10  74 SW7       29.95F WCI   7
MICHIGAN CITY+ CLOUDY    19  10  68 S7        29.95F WCI  10
MONTICELLO +   CLOUDY    17   8  67 SW3       29.99F
RENSSELAER +   CLOUDY    19   9  63 SW6       29.97F WCI  11
VALPARAISO     CLOUDY    19  10  68 SW6       29.95F WCI  11

$$

LMZ046-743>745-130600-
SOUTHERN LAKE MICHIGAN

STATION/POSITION TIME  TEMP    WIND        PRES    WAVE
                       AIR SEA DIR/SP/G            HT
                 (UTC) (F)     (DEG/KT/KT) (MB)    (FT)
BURNS HARBOR     0440   22     240/ 10/ 14 1015.2S
MICHIGAN CITY    0440   23     270/ 11/ 12   N/A

$$

INZ004-005-014>016-021>024-130600-
NORTH CENTRAL INDIANA

CITY           SKY/WX    TMP DP  RH WIND       PRES   REMARKS
GOSHEN         CLOUDY    17   9  70 W10       29.92F WCI   5
LOGANSPORT +   CLOUDY    19   9  63 NW6       29.99F WCI  11
PERU/GRISSOM   CLOUDY    17   9  70 W8        29.97F WCI   7
ROCHESTER +    PTCLDY    19  10  68 W8        29.96F WCI   9
SOUTH BEND     CLOUDY    15  10  80 SW10      29.93F WCI   2
WARSAW +       CLOUDY    18   9  68 W8        29.94F WCI   7

$$

INZ006>009-017-018-025>027-130600-
NORTHEAST INDIANA

CITY           SKY/WX    TMP DP  RH WIND       PRES   REMARKS
AUBURN +       FLURRIES  19  12  73 W9        29.94S WCI   9
FORT WAYNE     CLOUDY    17  10  74 W12       29.95S WCI   4
HUNTINGTON +   CLOUDY    16   8  71 W9        29.96S WCI   4
KENDALLVILLE + FLURRIES  18  12  79 W8        29.91F WCI   7

$$

INZ028-029-035-036-043>045-051>053-130600-
WEST CENTRAL INDIANA

CITY           SKY/WX    TMP DP  RH WIND       PRES   REMARKS
CRAWFORDSVL +  CLOUDY    16   8  70 MISG        N/A
GREENCASTLE +  CLEAR     19   5  53 CALM      30.02S
LAFAYETTE      CLOUDY    17  11  77 CALM      30.01F
TERRE HAUTE    CLEAR     20  10  65 SW5       30.04F WCI  13

$$

INZ030>032-037>040-046>048-054>057-064-065-130600-
CENTRAL INDIANA

CITY           SKY/WX    TMP DP  RH WIND       PRES   REMARKS
FRANKFORT +    CLOUDY    19  11  71 CALM      30.01S
INDIANAPOLIS   PTCLDY    17   7  64 W7        30.01F WCI   8
-EAGLE CREEK   CLEAR     19   6  57 NW7       30.00F WCI  10
KOKOMO +       CLOUDY    17  10  74 W10       29.99F WCI   5
MARION +       CLOUDY    17  10  76 W10       29.98F WCI   4
MT COMFORT *+  CLEAR     16  10  79 NW6       30.00F WCI   7
SHELBYVILLE    CLEAR     18   7  62 NW3       30.01S
ZIONSVILLE +   CLOUDY    15   8  73 CALM      30.00F

$$

INZ033-034-041-042-049-050-058-059-130600-
EAST CENTRAL INDIANA

CITY           SKY/WX    TMP DP  RH WIND       PRES   REMARKS
MUNCIE         PTCLDY    17   8  67 W7        29.97F WCI   8
RICHMOND +     CLEAR     14   9  79 W6        29.96F WCI   5

$$

INZ060-061-067>069-081>083-085>088-130600-
SOUTHWEST INDIANA

CITY           SKY/WX    TMP DP  RH WIND       PRES   REMARKS
EVANSVILLE     CLEAR     24  11  57 CALM      30.10F
HUNTINGBURG +  CLEAR     21  12  68 SW5       30.09R WCI  15
WASHINGTON +   PTCLDY    22  11  63 W5        30.07S WCI  15

$$

INZ062-063-066-070>080-084-089>092-130600-
SOUTH CENTRAL AND SOUTHEAST INDIANA

CITY           SKY/WX    TMP DP  RH WIND       PRES   REMARKS
BEDFORD +      CLEAR     21   5  49 CALM      30.02F
BLOOMINGTON    PTCLDY    21   6  52 W3        30.01F
MADISON *+     CLEAR     21   9  58 W5        30.04F WCI  15
NORTH VERNON + CLEAR     18   7  62 W6        30.03S WCI   9
SEYMOUR +      CLEAR     19   9  63 SW5       30.04F WCI  13

$$





USA.gov is the U.S. government's official web portal to all federal, state and local government web resources and services.